Time,TemperatureF,DewpointF,PressureIn,WindDirection,WindDirectionDegrees,WindSpeedMPH,WindSpeedGustMPH,Humidity,HourlyPrecipIn,Conditions,Clouds,dailyrainin,SolarRadiationWatts/m^2,SoftwareType,DateUTC
2013-01-29 00:11:00,12.0,9.0,-100.00,North,353,0.0,2.0,88,0.00,,,0.00,0.000000,,2013-01-29 07:11:00,
2013-01-29 00:21:00,12.0,9.0,-100.00,North,353,0.0,2.0,88,0.00,,,0.00,0.000000,,2013-01-29 07:21:00,
2013-01-29 00:31:00,12.0,9.0,-100.00,North,353,0.0,2.0,88,0.00,,,0.00,0.000000,,2013-01-29 07:31:00,
2013-01-29 00:41:00,12.0,9.0,-100.00,North,353,0.0,2.0,88,0.00,,,0.00,0.000000,,2013-01-29 07:41:00,
2013-01-29 01:11:00,13.0,10.0,-100.00,North,1,0.0,1.0,88,0.00,,,0.00,0.000000,,2013-01-29 08:11:00,
2013-01-29 01:21:00,13.0,10.0,-100.00,North,1,0.0,1.0,88,0.00,,,0.00,0.000000,,2013-01-29 08:21:00,
2013-01-29 01:31:00,13.0,10.0,-100.00,North,1,0.0,1.0,88,0.00,,,0.00,0.000000,,2013-01-29 08:31:00,
2013-01-29 01:41:00,13.0,10.0,-100.00,North,1,0.0,1.0,88,0.00,,,0.00,0.000000,,2013-01-29 08:41:00,
2013-01-29 02:01:00,13.0,10.0,-100.00,North,1,0.0,2.0,88,0.00,,,0.00,0.000000,,2013-01-29 09:01:00,
2013-01-29 02:11:00,13.0,10.0,-100.00,North,1,0.0,2.0,88,0.00,,,0.00,0.000000,,2013-01-29 09:11:00,
2013-01-29 02:21:00,13.0,10.0,-100.00,North,1,0.0,2.0,88,0.00,,,0.00,0.000000,,2013-01-29 09:21:00,
2013-01-29 02:31:00,13.0,10.0,-100.00,North,1,0.0,2.0,88,0.00,,,0.00,0.000000,,2013-01-29 09:31:00,
2013-01-29 02:42:00,13.0,10.0,-100.00,North,1,0.0,2.0,88,0.00,,,0.00,0.000000,,2013-01-29 09:42:00,
2013-01-29 03:11:00,13.0,10.0,-100.00,North,1,0.0,1.0,89,0.00,,,0.00,0.000000,,2013-01-29 10:11:00,
2013-01-29 03:21:00,13.0,10.0,-100.00,North,1,0.0,1.0,89,0.00,,,0.00,0.000000,,2013-01-29 10:21:00,
2013-01-29 03:32:00,13.0,10.0,-100.00,North,1,0.0,1.0,89,0.00,,,0.00,0.000000,,2013-01-29 10:32:00,
2013-01-29 03:41:00,13.0,10.0,-100.00,North,1,0.0,1.0,89,0.00,,,0.00,0.000000,,2013-01-29 10:41:00,
2013-01-29 04:11:00,13.0,10.0,-100.00,North,1,0.0,0.0,89,0.00,,,0.00,0.000000,,2013-01-29 11:11:00,
2013-01-29 04:21:00,13.0,10.0,-100.00,North,1,0.0,0.0,89,0.00,,,0.00,0.000000,,2013-01-29 11:21:00,
2013-01-29 04:31:00,13.0,10.0,-100.00,North,1,0.0,0.0,89,0.00,,,0.00,0.000000,,2013-01-29 11:31:00,
2013-01-29 04:42:00,13.0,10.0,-100.00,North,1,0.0,0.0,89,0.00,,,0.00,0.000000,,2013-01-29 11:42:00,
2013-01-29 05:12:00,13.0,10.0,-100.00,NNE,33,0.0,0.0,89,0.00,,,0.00,0.000000,,2013-01-29 12:12:00,
2013-01-29 05:22:00,13.0,10.0,-100.00,NNE,33,0.0,0.0,89,0.00,,,0.00,0.000000,,2013-01-29 12:22:00,
2013-01-29 05:32:00,13.0,10.0,-100.00,NNE,33,0.0,0.0,89,0.00,,,0.00,0.000000,,2013-01-29 12:32:00,
2013-01-29 05:42:00,13.0,10.0,-100.00,NNE,33,0.0,0.0,89,0.00,,,0.00,0.000000,,2013-01-29 12:42:00,
2013-01-29 06:11:00,14.0,12.0,-100.00,West,266,1.0,3.0,92,0.00,,,0.00,0.000000,,2013-01-29 13:11:00,
2013-01-29 06:22:00,14.0,12.0,-100.00,West,266,1.0,3.0,92,0.00,,,0.00,0.000000,,2013-01-29 13:22:00,
2013-01-29 06:31:00,14.0,12.0,-100.00,West,266,1.0,3.0,92,0.00,,,0.00,0.000000,,2013-01-29 13:31:00,
2013-01-29 06:42:00,14.0,12.0,-100.00,West,266,1.0,3.0,92,0.00,,,0.00,0.000000,,2013-01-29 13:42:00,
2013-01-29 07:12:00,14.0,12.0,-100.00,WNW,286,2.0,6.0,90,0.00,,,0.00,0.000000,,2013-01-29 14:12:00,
2013-01-29 07:21:00,14.0,12.0,-100.00,WNW,286,2.0,6.0,90,0.00,,,0.00,0.000000,,2013-01-29 14:21:00,
2013-01-29 07:32:00,14.0,12.0,-100.00,WNW,286,2.0,6.0,90,0.00,,,0.00,0.000000,,2013-01-29 14:32:00,
2013-01-29 07:42:00,14.0,12.0,-100.00,WNW,286,2.0,6.0,90,0.00,,,0.00,0.000000,,2013-01-29 14:42:00,
2013-01-29 08:12:00,13.0,10.0,-100.00,SW,222,0.0,4.0,88,0.00,,,0.00,0.000000,,2013-01-29 15:12:00,
2013-01-29 08:22:00,13.0,10.0,-100.00,SW,222,0.0,4.0,88,0.00,,,0.00,0.000000,,2013-01-29 15:22:00,
2013-01-29 08:32:00,13.0,10.0,-100.00,SW,222,0.0,4.0,88,0.00,,,0.00,0.000000,,2013-01-29 15:32:00,
2013-01-29 08:42:00,13.0,10.0,-100.00,SW,222,0.0,4.0,88,0.00,,,0.00,0.000000,,2013-01-29 15:42:00,
2013-01-29 09:12:00,14.0,11.0,-100.00,South,182,0.0,1.0,88,0.00,,,0.00,3.000000,,2013-01-29 16:12:00,
2013-01-29 09:22:00,14.0,11.0,-100.00,South,182,0.0,1.0,88,0.00,,,0.00,3.000000,,2013-01-29 16:22:00,
2013-01-29 09:32:00,14.0,11.0,-100.00,South,182,0.0,1.0,88,0.00,,,0.00,3.000000,,2013-01-29 16:32:00,
2013-01-29 09:42:00,14.0,11.0,-100.00,South,182,0.0,1.0,88,0.00,,,0.00,3.000000,,2013-01-29 16:42:00,
2013-01-29 10:12:00,17.0,14.0,-100.00,WSW,243,0.0,2.0,86,0.00,,,0.00,8.000000,,2013-01-29 17:12:00,
2013-01-29 10:21:00,17.0,14.0,-100.00,WSW,243,0.0,2.0,86,0.00,,,0.00,8.000000,,2013-01-29 17:21:00,
2013-01-29 10:32:00,17.0,14.0,-100.00,WSW,243,0.0,2.0,86,0.00,,,0.00,8.000000,,2013-01-29 17:32:00,
2013-01-29 10:42:00,17.0,14.0,-100.00,WSW,243,0.0,2.0,86,0.00,,,0.00,8.000000,,2013-01-29 17:42:00,
2013-01-29 11:12:00,18.0,13.0,-100.00,SW,236,1.0,4.0,81,0.00,,,0.00,15.000000,,2013-01-29 18:12:00,
2013-01-29 11:22:00,18.0,13.0,-100.00,SW,236,1.0,4.0,81,0.00,,,0.00,15.000000,,2013-01-29 18:22:00,
2013-01-29 11:33:00,18.0,13.0,-100.00,SW,236,1.0,4.0,81,0.00,,,0.00,15.000000,,2013-01-29 18:33:00,
2013-01-29 11:42:00,18.0,13.0,-100.00,SW,236,1.0,4.0,81,0.00,,,0.00,15.000000,,2013-01-29 18:42:00,
2013-01-29 12:12:00,21.0,15.0,-100.00,SW,218,0.0,4.0,77,0.00,,,0.00,21.000000,,2013-01-29 19:12:00,
2013-01-29 12:22:00,21.0,15.0,-100.00,SW,218,0.0,4.0,77,0.00,,,0.00,21.000000,,2013-01-29 19:22:00,
2013-01-29 12:32:00,21.0,15.0,-100.00,SW,218,0.0,4.0,77,0.00,,,0.00,21.000000,,2013-01-29 19:32:00,
2013-01-29 12:42:00,21.0,15.0,-100.00,SW,218,0.0,4.0,77,0.00,,,0.00,21.000000,,2013-01-29 19:42:00,
2013-01-29 13:12:00,27.0,18.0,-100.00,South,188,2.0,5.0,69,0.01,,,0.01,41.000000,,2013-01-29 20:12:00,
2013-01-29 13:22:00,27.0,18.0,-100.00,South,188,2.0,5.0,69,0.01,,,0.01,41.000000,,2013-01-29 20:22:00,
2013-01-29 13:32:00,27.0,18.0,-100.00,South,188,2.0,5.0,69,0.01,,,0.01,41.000000,,2013-01-29 20:32:00,
2013-01-29 13:42:00,27.0,18.0,-100.00,South,188,2.0,5.0,69,0.01,,,0.01,41.000000,,2013-01-29 20:42:00,
2013-01-29 14:02:00,24.0,17.0,-100.00,South,181,3.0,5.0,74,0.02,,,0.03,40.000000,,2013-01-29 21:02:00,
2013-01-29 14:12:00,24.0,17.0,-100.00,South,181,3.0,5.0,74,0.02,,,0.03,40.000000,,2013-01-29 21:12:00,
2013-01-29 14:22:00,24.0,17.0,-100.00,South,181,3.0,5.0,74,0.02,,,0.03,40.000000,,2013-01-29 21:22:00,
2013-01-29 14:33:00,24.0,17.0,-100.00,South,181,3.0,5.0,74,0.02,,,0.03,40.000000,,2013-01-29 21:33:00,
2013-01-29 14:42:00,24.0,17.0,-100.00,South,181,3.0,5.0,74,0.02,,,0.03,40.000000,,2013-01-29 21:42:00,
2013-01-29 15:12:00,24.0,17.0,-100.00,SW,227,2.0,7.0,74,0.02,,,-99.99,41.000000,,2013-01-29 22:12:00,
2013-01-29 15:21:00,24.0,17.0,-100.00,SW,227,2.0,7.0,74,0.02,,,-99.99,41.000000,,2013-01-29 22:21:00,
2013-01-29 15:32:00,24.0,17.0,-100.00,SW,227,2.0,7.0,74,0.02,,,-99.99,41.000000,,2013-01-29 22:32:00,
2013-01-29 15:42:00,24.0,17.0,-100.00,SW,227,2.0,7.0,74,0.02,,,-99.99,41.000000,,2013-01-29 22:42:00,
2013-01-29 16:12:00,19.0,15.0,-100.00,SW,227,1.0,5.0,84,0.01,,,0.06,14.000000,,2013-01-29 23:12:00,
2013-01-29 16:22:00,19.0,15.0,-100.00,SW,227,1.0,5.0,84,0.01,,,0.06,14.000000,,2013-01-29 23:22:00,
2013-01-29 16:32:00,19.0,15.0,-100.00,SW,227,1.0,5.0,84,0.01,,,0.06,14.000000,,2013-01-29 23:32:00,
2013-01-29 16:41:00,19.0,15.0,-100.00,SW,227,1.0,5.0,84,0.01,,,0.06,14.000000,,2013-01-29 23:41:00,
2013-01-29 17:11:00,17.0,13.0,-100.00,WSW,244,1.0,4.0,84,0.00,,,0.06,13.000000,,2013-01-30 00:11:00,
2013-01-29 17:22:00,17.0,13.0,-100.00,WSW,244,1.0,4.0,84,0.00,,,0.06,13.000000,,2013-01-30 00:22:00,
2013-01-29 17:32:00,17.0,13.0,-100.00,WSW,244,1.0,4.0,84,0.00,,,0.06,13.000000,,2013-01-30 00:32:00,
2013-01-29 17:42:00,17.0,13.0,-100.00,WSW,244,1.0,4.0,84,0.00,,,0.06,13.000000,,2013-01-30 00:42:00,
2013-01-29 18:11:00,14.0,11.0,-100.00,SSW,208,1.0,4.0,89,0.00,,,-99.99,2.000000,,2013-01-30 01:11:00,
2013-01-29 18:22:00,14.0,11.0,-100.00,SSW,208,1.0,4.0,89,0.00,,,-99.99,2.000000,,2013-01-30 01:22:00,
2013-01-29 18:32:00,14.0,11.0,-100.00,SSW,208,1.0,4.0,89,0.00,,,-99.99,2.000000,,2013-01-30 01:32:00,
2013-01-29 18:42:00,14.0,11.0,-100.00,SSW,208,1.0,4.0,89,0.00,,,-99.99,2.000000,,2013-01-30 01:42:00,
2013-01-29 19:12:00,13.0,11.0,-100.00,SSW,203,2.0,5.0,90,0.00,,,0.06,0.000000,,2013-01-30 02:12:00,
2013-01-29 19:21:00,13.0,11.0,-100.00,SSW,203,2.0,5.0,90,0.00,,,0.06,0.000000,,2013-01-30 02:21:00,
2013-01-29 19:33:00,13.0,11.0,-100.00,SSW,203,2.0,5.0,90,0.00,,,0.06,0.000000,,2013-01-30 02:33:00,
2013-01-29 19:42:00,13.0,11.0,-100.00,SSW,203,2.0,5.0,90,0.00,,,0.06,0.000000,,2013-01-30 02:42:00,
2013-01-29 20:11:00,13.0,11.0,-100.00,WSW,254,1.0,4.0,91,0.00,,,0.06,0.000000,,2013-01-30 03:11:00,
2013-01-29 20:22:00,13.0,11.0,-100.00,WSW,254,1.0,4.0,91,0.00,,,0.06,0.000000,,2013-01-30 03:22:00,
2013-01-29 20:31:00,13.0,11.0,-100.00,WSW,254,1.0,4.0,91,0.00,,,0.06,0.000000,,2013-01-30 03:31:00,
2013-01-29 20:42:00,13.0,11.0,-100.00,WSW,254,1.0,4.0,91,0.00,,,0.06,0.000000,,2013-01-30 03:42:00,
2013-01-29 21:11:00,13.0,11.0,-100.00,SW,215,0.0,2.0,90,0.00,,,0.06,0.000000,,2013-01-30 04:11:00,
2013-01-29 21:22:00,13.0,11.0,-100.00,SW,215,0.0,2.0,90,0.00,,,0.06,0.000000,,2013-01-30 04:22:00,
2013-01-29 21:32:00,13.0,11.0,-100.00,SW,215,0.0,2.0,90,0.00,,,0.06,0.000000,,2013-01-30 04:32:00,
2013-01-29 21:41:00,13.0,11.0,-100.00,SW,215,0.0,2.0,90,0.00,,,0.06,0.000000,,2013-01-30 04:41:00,
2013-01-29 22:12:00,13.0,10.0,-100.00,NW,312,0.0,0.0,89,0.00,,,0.06,0.000000,,2013-01-30 05:12:00,
2013-01-29 22:22:00,13.0,10.0,-100.00,NW,312,0.0,0.0,89,0.00,,,0.06,0.000000,,2013-01-30 05:22:00,
2013-01-29 22:32:00,13.0,10.0,-100.00,NW,312,0.0,0.0,89,0.00,,,0.06,0.000000,,2013-01-30 05:32:00,
2013-01-29 22:42:00,13.0,10.0,-100.00,NW,312,0.0,0.0,89,0.00,,,0.06,0.000000,,2013-01-30 05:42:00,
2013-01-29 23:11:00,13.0,10.0,-100.00,ENE,61,0.0,2.0,89,0.00,,,0.06,0.000000,,2013-01-30 06:11:00,
2013-01-29 23:21:00,13.0,10.0,-100.00,ENE,61,0.0,2.0,89,0.00,,,0.06,0.000000,,2013-01-30 06:21:00,
2013-01-29 23:31:00,13.0,10.0,-100.00,ENE,61,0.0,2.0,89,0.00,,,0.06,0.000000,,2013-01-30 06:31:00,
2013-01-29 23:41:00,13.0,10.0,-100.00,ENE,61,0.0,2.0,89,0.00,,,0.06,0.000000,,2013-01-30 06:41:00,